Content
SEND FEEDBACK

Daily
Averages
Monthly
Summary
French Polynesia

PAPEETE, FRENCH POLYNESIA


Home > Oceania > French Polynesia
Elevation: 7 feet     Latitude: 17 33S     Longitude: 149 36W

WEATHER
 
SELECT A DAY
Number of Records: 216,220;   Date Range: 6/30/96 - 11/27/14
 
SHARE

PRINT THIS DATA

[ ← Previous Day ]
WEATHER ALMANAC - APRIL 18, 2013
[ Next Day → ]
[ °C ]   °F
Weather ElementAverageHighLow
Temperature81.6 °F87.8 °F (10:30 am)76 °F (5:00 am)
Dewpoint72 °F75.2 °F (11:00 am)68 °F (4:00 pm)
Humidity71.9 %83 % (12:30 am)57 % (5:00 pm)
Barometer29.88 in29.95 in (9:00 am)29.83 in (1:30 pm)
Wind Speed3.9 mph13.8 mph (4:00 pm)
Weather ElementAverage
Visibility7.8 mi
Wind DirectionESE (99.1 °)

Weather ElementTotal
Precipitation---
Cooling Degree Days16.9 (Base 65)
Growing Degree Days31.9 (Base 50)
Averaged from 55 records on April 18, 2013
WEATHER CONDITIONS BREAKOUT
WIND DIRECTION BREAKOUT
WEATHER BY HOUR - APRIL 18, 2013
[ °C ]   °F
Local TimeTemperatureDewpointHumidityBarometerVisibilityWind DirectionWind SpeedGust SpeedPrecipitationEventsConditions
12:30 AM78.8 °F73.4 °F83 %29.89 in6.2 miSouth (170°)4.6 mphPartly Cloudy
1:00 AM78.8 °F71.6 °F78 %29.89 in6.2 miVariable2.3 mphMostly Cloudy
1:30 AM78.8 °F71.6 °F78 %29.89 in6.2 miEast (100°)1.2 mphMostly Cloudy
2:00 AM78.0 °F72.0 °F77 %29.89 in12.0 miCalmScattered Clouds
2:00 AM78.8 °F71.6 °F78 %29.89 in6.2 miCalmScattered Clouds
2:30 AM78.8 °F71.6 °F78 %29.86 in6.2 miVariable2.3 mphPartly Cloudy
3:00 AM77.0 °F71.6 °F83 %29.86 in6.2 miCalmPartly Cloudy
3:30 AM77.0 °F71.6 °F83 %29.86 in6.2 miVariable1.2 mph
4:00 AM77.0 °F71.6 °F83 %29.86 in6.2 miEast (90°)3.5 mph
4:30 AM77.0 °F69.8 °F78 %29.86 in6.2 miEast (100°)4.6 mph
5:00 AM76.0 °F70.0 °F77 %29.88 in37.0 miESE (110°)2.3 mphClear
5:00 AM77.0 °F69.8 °F78 %29.86 in6.2 miESE (110°)2.3 mph
5:30 AM77.0 °F69.8 °F78 %29.89 in6.2 miEast (100°)1.2 mph
6:00 AM77.0 °F69.8 °F78 %29.89 in6.2 miSE (130°)2.3 mphMostly Cloudy
6:30 AM77.0 °F69.8 °F78 %29.89 in6.2 miEast (100°)3.5 mphMostly Cloudy
7:00 AM77.0 °F71.6 °F83 %29.92 in6.2 miVariable2.3 mphMostly Cloudy
7:30 AM78.8 °F71.6 °F78 %29.92 in6.2 miSouth (190°)2.3 mphMostly Cloudy
8:00 AM82.0 °F72.0 °F65 %29.93 in19.0 miSouth (180°)3.5 mphPartly Cloudy
8:00 AM82.4 °F71.6 °F70 %29.92 in6.2 miVariable3.5 mphScattered Clouds
8:30 AM84.2 °F71.6 °F66 %29.92 in6.2 miSW (220°)4.6 mphMostly Cloudy
9:00 AM84.2 °F73.4 °F70 %29.95 in6.2 miSW (230°)5.8 mphMostly Cloudy
9:30 AM86.0 °F73.4 °F66 %29.92 in6.2 miSW (230°)3.5 mphMostly Cloudy
10:00 AM86.0 °F73.4 °F66 %29.92 in6.2 miVariable2.3 mphMostly Cloudy
10:30 AM87.8 °F73.4 °F62 %29.92 in6.2 miNorth (10°)5.8 mphMostly Cloudy
11:00 AM87.0 °F75.0 °F59 %29.91 in19.0 miNorth6.9 mphScattered Clouds
11:00 AM86.0 °F75.2 °F70 %29.89 in6.2 miNorth (360°)6.9 mphMostly Cloudy
11:30 AM87.8 °F75.2 °F66 %29.86 in6.2 miNorth (10°)5.8 mphMostly Cloudy
12:00 PM87.8 °F75.2 °F66 %29.86 in6.2 miNNE (30°)6.9 mphMostly Cloudy
12:30 PM87.8 °F75.2 °F66 %29.86 in6.2 miNorth (10°)5.8 mphMostly Cloudy
1:00 PM87.8 °F75.2 °F66 %29.86 in6.2 miNorth (10°)6.9 mphMostly Cloudy
1:30 PM87.8 °F75.2 °F66 %29.83 in6.2 miNNE (20°)6.9 mphMostly Cloudy
2:00 PM87.0 °F75.0 °F59 %29.84 in19.0 miNNE (20°)6.9 mphScattered Clouds
2:00 PM87.8 °F75.2 °F66 %29.83 in6.2 miNNE (20°)6.9 mphMostly Cloudy
2:30 PM87.8 °F75.2 °F66 %29.83 in6.2 miNorth (10°)5.8 mphMostly Cloudy
3:00 PM86.0 °F73.4 °F66 %29.83 in6.2 miNorth (350°)4.6 mphThunderstormThunderstorm
3:30 PM84.2 °F75.2 °F74 %29.83 in6.2 miWest (280°)3.5 mphThunderstormThunderstorm
4:00 PM82.4 °F68.0 °F62 %29.83 in6.2 miSSW (200°)13.8 mphThunderstormThunderstorm
4:30 PM82.4 °F68.0 °F62 %29.86 in6.2 miSouth (190°)5.8 mphThunderstormThunderstorm
5:00 PM82.0 °F69.0 °F57 %29.87 in9.0 miSSW (200°)8.9 mphThunderstormThunderstorm
5:00 PM82.4 °F69.8 °F66 %29.86 in6.2 miSSW (200°)4.6 mphThunderstormThunderstorm
5:30 PM82.4 °F71.6 °F70 %29.86 in6.2 miSW (230°)4.6 mphMostly Cloudy
6:00 PM82.4 °F71.6 °F70 %29.86 in6.2 miSSW (200°)4.6 mphMostly Cloudy
6:30 PM80.6 °F73.4 °F79 %29.86 in6.2 miSSW (210°)8.1 mphMostly Cloudy
7:00 PM80.6 °F71.6 °F74 %29.86 in6.2 miSouth (190°)6.9 mphMostly Cloudy
7:30 PM80.6 °F69.8 °F70 %29.86 in6.2 miVariable3.5 mphMostly Cloudy
8:00 PM80.0 °F70.0 °F65 %29.89 in12.0 miCalmPartly Cloudy
8:00 PM80.6 °F69.8 °F70 %29.89 in6.2 miCalmMostly Cloudy
8:30 PM80.6 °F69.8 °F70 %29.89 in6.2 miCalmMostly Cloudy
9:00 PM78.8 °F69.8 °F74 %29.89 in6.2 miSouth (180°)3.5 mphMostly Cloudy
9:30 PM78.8 °F71.6 °F78 %29.89 in6.2 miCalmMostly Cloudy
10:00 PM78.8 °F71.6 °F78 %29.89 in6.2 miCalmPartly Cloudy
10:30 PM78.8 °F71.6 °F78 %29.92 in6.2 miEast (80°)3.5 mphPartly Cloudy
11:00 PM79.0 °F71.0 °F71 %29.92 in12.0 miEast (90°)3.5 mphScattered Clouds
11:00 PM78.8 °F71.6 °F78 %29.92 in6.2 miEast (90°)3.5 mphMostly Cloudy
11:30 PM78.8 °F71.6 °F78 %29.89 in6.2 miVariable2.3 mphMostly Cloudy
Hourly data recorded from NTAA, located miles away from Papeete, French Polynesia







STORIES FROM OUR PARTNERS